Dewpoint
52 52 51 51 51 50 50 51 53 54 54 54 54 53 53 53 52 52 49 44 43 43
52 51 50 51 51 51 51 51 52 54 54 53 53 52 51 51 51 50 48 45 45 43
51 51 50 50 50 50 50 51 52 53 53 53 53 52 51 51 49 48 48 47 44 45
51 50 50 50 50 49 50 50 51 51 52 51 51 51 50 49 48 47 47 46 44 44
52 50 49 49 50 49 49 50 50 50 49 50 50 50 49 48 47 47 46 46 44 43
52 50 49 49 49 49 49 49 49 49 48 48 49 49 48 47 46 45 45 44 44 43
51 51 50 49 49 49 48 48 48 48 48 48 47 47 47 47 46 45 44 44 44 43
51 51 50 50 49 49 48 48 48 48 48 48 48 47 46 45 45 45 44 44 43 43
49 50 50 49 49 49 49 48 48 47 47 47 48 48 47 45 44 44 44 43 43 43
47 47 48 49 48 48 48 48 48 47 46 47 47 48 47 46 45 45 45 44 44 44
45 45 45 46 47 48 48 47 47 47 46 47 47 47 47 47 46 46 45 45 45 45
42 42 41 42 43 44 45 45 44 45 46 46 46 47 47 47 46 45 45 46 46 46
39 39 40 41 41 41 41 42 41 41 43 44 44 46 46 45 43 42 41 42 43 45
37 39 40 40 40 39 39 39 39 39 39 40 42 43 44 43 41 40 40 40 41 43
Lifted_Index
4 4 5 5 5 5 4 3 2 1 1 0 0 0 1 1 2 3 4 5 5 6
4 4 5 5 5 5 4 3 2 1 1 0 0 -0 0 1 2 4 4 5 5 5
4 4 5 6 6 6 5 4 3 2 1 0 0 0 0 2 3 4 5 5 5 5
3 4 5 6 6 6 6 5 4 2 1 0 0 1 1 3 4 4 4 5 5 5
3 3 4 5 6 7 6 6 4 3 2 1 1 1 1 3 4 4 4 5 6 6
3 3 4 5 5 6 7 7 6 5 4 3 3 2 2 3 4 5 5 6 6 7
3 3 4 4 5 6 7 8 8 7 6 5 5 4 4 5 5 6 6 6 6 6
3 3 4 5 5 6 7 8 9 9 8 7 6 6 6 7 7 7 7 7 7 7
3 3 4 5 5 6 7 8 9 9 9 8 8 8 8 9 9 9 9 9 9 9
3 4 4 5 6 6 7 8 8 9 9 9 9 8 8 9 9 9 9 9 9 9
4 4 4 5 5 6 7 7 8 8 9 9 8 8 8 8 8 9 9 8 8 8
4 4 4 4 5 5 6 7 7 7 8 8 8 8 7 7 7 8 8 7 7 7
5 5 4 4 4 5 6 6 7 7 7 7 7 7 7 7 7 7 7 7 7 7
5 5 5 5 5 5 5 6 6 6 6 6 6 6 6 6 6 6 6 7 7 7